EW3359 Weather Reports


time (UTC)temp
C
wind
direction
speed
KPH
gust
KPH
rain 1hr
cm
rain 24hr
cm
rain mn
cm
humidity
%
barometer
mb
20260506203054 10 137 0.0 0.0 0.00 0.43 0.43 90 1010.2
20260506201553 10 137 0.0 0.0 0.00 0.43 0.43 89 1010.2
20260506200052 10 137 0.0 0.0 0.00 0.43 0.43 89 1010.1
20260506194553 11 137 0.0 0.0 0.00 0.43 0.43 88 1009.9
20260506193047 11 137 0.0 0.0 0.00 0.43 0.43 88 1009.5
20260506191546 11 137 0.0 0.0 0.00 0.43 0.43 87 1009.3
20260506190045 11 137 0.0 0.0 0.00 0.43 0.43 87 1009.0
20260506184544 11 137 0.0 0.0 0.00 0.43 0.43 87 1008.7
20260506183042 11 137 0.0 0.0 0.00 0.43 0.43 87 1008.7
20260506181542 11 137 0.0 0.0 0.00 0.43 0.43 86 1008.5
20260506180044 11 137 0.0 0.0 0.00 0.43 0.43 85 1008.3
20260506174541 11 137 0.0 0.0 0.00 0.43 0.43 84 1008.2
20260506173045 11 137 0.0 0.0 0.00 0.43 0.43 84 1008.1
20260506171548 12 137 0.0 0.0 0.00 0.43 0.43 80 1008.0
20260506170040 11 137 0.0 0.0 0.00 0.43 0.43 78 1007.9
20260506164552 11 137 0.0 1.6 0.00 0.43 0.43 85 1007.9
20260506163042 11 152 0.0 3.2 0.00 0.43 0.43 89 1007.9
20260506161539 11 154 0.0 3.2 0.05 0.43 0.43 92 1008.1
20260506160046 11 155 0.0 0.0 0.05 0.51 0.43 93 1008.2
20260506154547 10 155 0.0 8.0 0.08 0.51 0.43 92 1008.1
20260506153036 10 256 0.0 0.0 0.13 0.51 0.43 90 1008.4
20260506151536 10 256 0.0 0.0 0.15 0.48 0.41 89 1008.7
20260506150036 10 256 0.0 0.0 0.15 0.46 0.38 88 1008.5
20260506144533 10 263 0.0 0.0 0.13 0.43 0.36 84 1008.1
20260506143035 11 275 0.0 9.7 0.05 0.38 0.30 79 1007.9
20260506141531 11 24 0.0 16.1 0.00 0.33 0.23 77 1007.2
20260506140030 12 140 0.0 11.3 0.00 0.33 0.23 79 1007.1
20260506134528 13 155 0.0 6.4 0.00 0.33 0.23 82 1006.9
20260506133024 12 78 1.6 17.7 0.00 0.33 0.23 84 1006.9
20260506131525 12 115 0.0 3.2 0.00 0.33 0.23 86 1006.9
20260506130021 12 76 0.0 3.2 0.00 0.33 0.23 88 1007.0
20260506124518 11 126 0.0 4.8 0.00 0.33 0.23 90 1007.1
20260506123017 11 158 0.0 1.6 0.00 0.33 0.23 91 1007.0
20260506121516 11 225 0.0 0.0 0.00 0.33 0.23 90 1007.1
20260506120014 10 225 0.0 0.0 0.00 0.33 0.23 91 1007.2
20260506114513 11 225 0.0 1.6 0.00 0.33 0.23 91 1006.8
20260506113014 10 225 0.0 0.0 0.00 0.33 0.23 91 1006.7
20260506111512 10 225 0.0 0.0 0.03 0.33 0.23 91 1006.5
20260506110012 10 225 0.0 4.8 0.05 0.33 0.23 92 1006.4
20260506104512 10 201 0.0 1.6 0.08 0.33 0.23 92 1006.2
20260506103023 10 236 0.0 1.6 0.13 0.33 0.23 93 1006.1
20260506101511 10 174 0.0 3.2 0.15 0.30 0.23 93 1005.8
20260506100010 10 184 0.0 9.7 0.20 0.28 0.20 93 1005.7
20260506094525 10 146 1.6 8.0 0.15 0.23 0.15 93 1005.8
20260506093008 10 192 0.0 6.4 0.13 0.20 0.13 92 1005.6
20260506091508 10 245 0.0 8.0 0.05 0.15 0.05 91 1005.2
20260506090007 10 254 0.0 9.7 0.00 0.08 0.00 91 1005.0
20260506084507 11 178 0.0 11.3 0.00 0.08 0.00 90 1004.9
20260506083006 11 214 0.0 8.0 0.00 0.08 0.00 91 1004.7
20260506081506 11 234 0.0 3.2 0.00 0.08 0.00 92 1004.3
20260506073002 10 185 0.0 3.2 0.00 0.08 0.00 93 1004.3
20260506071602 10 184 0.0 3.2 0.00 0.08 0.00 93 1004.1
20260506070117 10 207 0.0 1.6 0.00 0.08 0.00 93 1003.8
20260506061603 10 233 0.0 4.8 0.00 0.08 0.00 93 1003.7
20260506044554 10 185 0.0 0.0 0.00 0.08 0.00 92 1003.9
20260506043045 10 185 0.0 0.0 0.00 0.08 0.00 91 1004.0
20260506041549 10 185 0.0 0.0 0.00 0.08 0.00 91 1004.2
20260506040044 10 185 0.0 0.0 0.00 0.08 0.00 91 1004.5
20260506034540 10 183 0.0 0.0 0.00 0.08 0.00 91 1004.2
20260506033037 10 183 0.0 0.0 0.00 0.08 0.00 90 1004.6
20260506031551 10 183 0.0 0.0 0.00 0.08 0.00 91 1004.9
20260506030033 10 183 0.0 0.0 0.00 0.08 0.00 91 1005.1
20260506024535 10 183 0.0 0.0 0.00 0.08 0.00 91 1005.5
20260506023030 10 183 0.0 0.0 0.00 0.08 0.00 91 1005.6
20260506021527 10 183 0.0 0.0 0.00 0.08 0.00 92 1005.8
20260506020025 11 183 0.0 0.0 0.00 0.08 0.00 92 1006.0
20260506014528 11 183 0.0 0.0 0.00 0.08 0.00 92 1006.5
20260506013024 11 183 0.0 0.0 0.00 0.08 0.00 92 1006.6
20260506011525 11 183 0.0 0.0 0.00 0.08 0.00 92 1006.7
20260506010022 11 183 0.0 0.0 0.00 0.08 0.00 93 1006.7
20260506004519 11 182 0.0 0.0 0.00 0.08 0.00 93 1006.7
20260506003019 11 182 0.0 3.2 0.00 0.08 0.00 93 1007.1
20260506001516 11 198 0.0 0.0 0.00 0.08 0.00 93 1007.1
20260506000013 11 198 0.0 1.6 0.00 0.08 0.00 93 1007.8
20260505234526 11 186 0.0 3.2 0.00 0.08 0.00 93 1007.9
20260505233016 11 185 0.0 1.6 0.00 0.08 0.00 93 1008.0
20260505231513 11 185 0.0 1.6 0.00 0.08 0.00 93 1008.4
20260505230012 11 182 0.0 3.2 0.00 0.08 0.00 93 1008.3
20260505224508 11 226 0.0 4.8 0.00 0.08 0.00 93 1007.9
20260505223009 11 186 0.0 1.6 0.00 0.08 0.00 92 1008.2
20260505221504 11 183 0.0 3.2 0.00 0.08 0.00 92 1008.3
20260505220007 12 211 0.0 3.2 0.00 0.08 0.08 91 1008.5
20260505214502 12 212 0.0 3.2 0.00 0.08 0.08 91 1008.3
20260505213000 12 215 0.0 1.6 0.00 0.08 0.08 90 1008.4
20260505211614 12 215 0.0 3.2 0.00 0.08 0.08 90 1008.2
20260505204602 12 213 0.0 0.0 0.00 0.08 0.08 89 1008.1